Tracking 30102 objects as of 12-Dec-2024
HD Live streaming from Space Station
objects crossing your sky now

RUBIN 2

Track RUBIN 2 now!
10-day predictions
RUBIN 2 is classified as:


NORAD ID: 27605
Int'l Code: 2002-058A
Perigee: 617.1 km
Apogee: 668.4 km
Inclination: 64.6 °
Period: 97.4 minutes
Semi major axis: 7013 km
RCS: 0.234 m2 (medium)
Launch date: December 20, 2002
Source: Germany (GER)
Launch site: TYURATAM MISSILE AND SPACE COMPLEX (TTMTR)

Uplink (MHz): 435.275
Downlink (MHz): 145.825
Beacon (MHz):
Mode: U/1200 D/9600 MSK
Call sign:
Status: Inactive

Your satellite tracking list
Your tracking list is empty




NASA's NSSDC Master Catalog

Two Line Element Set (TLE):
1 27605U 02058A   24347.11611987  .00001397  00000-0  21050-3 0  9990
2 27605  64.5553  27.1491 0036512  27.1433 333.1569 14.78008673183007
Source of the keplerian elements: AFSPC